{"data":{"norad_id":59731,"intl_designator":"2024-090B","name":"STARLINK-31817","alt_names":[],"object_type":"PAYLOAD","status":"ACTIVE","operator":null,"country":"US","launch_date":"2024-05-13","launch_site_code":"AFETR","launch_vehicle":null,"mission":null,"orbit_class":"UNKNOWN","rcs_meters":null,"size_class":null,"mass_kg":null,"dimensions":null,"purposes":["comms"],"wikipedia_slug":null,"has_3d_model":false,"image_url":null,"decayed_at":null,"tle_current":{"epoch":"2026-09-21T09:28:24.285792Z","epoch_age_seconds":94083,"freshness":"FRESH","line1":"1 59731U 24090B   26264.39472553  .00000356  00000+0  22451-4 0  9999","line2":"2 59731  43.0008 158.0010 0000963 270.1475  89.9266 15.27576896133374","mean_motion":15.27576896,"eccentricity":9.63e-5,"inclination_deg":43.0008,"raan_deg":158.001,"arg_perigee_deg":270.1475,"mean_anomaly_deg":89.9266,"bstar":2.2451e-5,"rev_number":13337,"period_min":94.266940261448,"perigee_km":482.39765743194,"apogee_km":483.71912366416,"semimajor_km":6861.195390548,"source":"CELESTRAK","updated_at":"2026-09-22T09:00:49.061867Z"}}}